KINEIS-4C

Last updated on Sun Apr 12 2026 00:02:47 GMT+0000 (Coordinated Universal Time)

1 63301U 25056B 26100.98059468 .00000375 00000+0 67003-4 0 9993 2 63301 97.9517 226.8610 0003384 135.5333 224.6147 14.72327002 57241
UTC large
Height (km)
Speed (km/s)
/
Latitude / Longitude
Inclination (degrees)
Orbital Period (minutes)
Azimuth
Elevation
Range (km)
Doppler Factor

Next 0 passes for location: London (51.5072 / 0.1276)

Sorry there are no passes over London.
KINEIS-4C